Flag for Japan Weather past 2 weeks in Sagamihara, Japan

Now
62 °F

Passing clouds.


Feels Like: 62 °F
Forecast: 54 / 72 °F
Wind: 5 mph from Northwest

Location: Yokota Ab

Current Time: Oct 25, 2014 at 8:33:06 PM

Latest Report: Oct 25, 2014 at 7:58 PM


Visibility: 10 mi

Pressure: 30.27 "Hg

Humidity: 87%

Dew point: 58 °F

Location of SagamiharaLocation

Historic Weather in Sagamihara — Graph

°F

Sagamihara temperature yesterday

Maximum temperature yesterday: 67 °F (at 2:58 PM)
Minimum temperature yesterday: 53 °F (at 11:58 PM)
Average temperature yesterday: 58 °F

Past Weeks' High & Low Weather Summary

 TemperatureHumidityPressure
High79 °F (Oct 14, 11:58 AM)100% (Oct 13, 11:02 AM)30.43 "Hg (Oct 13, 11:02 AM)
Low48 °F (Oct 18, 5:58 AM)33% (Oct 14, 12:58 PM)29.12 "Hg (Oct 14, 2:58 AM)
Average61 °F79%30.10 "Hg
* Reported Oct 10 6:58 PM — Oct 25 6:58 PM, Sagamihara, Weather by CustomWeather, © 2014

Note: Actual official high and low records may vary slightly from our data, if they occured in-between our weather recording intervals... More about our weather records

Advertising

Sagamihara weather history for previous 24 hours

 ConditionsComfort  
Time TempWeatherWind HumidityBarometerVisibility
6:58 PM
Oct 25
65 °FPassing clouds.No wind81%30.26 "Hg10 mi
5:58 PM65 °FPartly cloudy.7 mph81%30.25 "Hg10 mi
4:58 PM67 °FPassing clouds.9 mph77%30.24 "Hg10 mi
3:58 PM69 °FSunny.12 mph69%30.23 "Hg10 mi
2:58 PM72 °FPassing clouds.10 mph62%30.22 "Hg10 mi
1:58 PM72 °FPassing clouds.10 mph60%30.21 "Hg10 mi
12:58 PM71 °FSunny.8 mph61%30.22 "Hg10 mi
11:58 AM68 °FSunny.6 mph62%30.26 "Hg10 mi
10:58 AM68 °FSunny.6 mph61%30.27 "Hg10 mi
9:58 AM65 °FSunny.3 mph66%30.30 "Hg10 mi
8:58 AM62 °FSunny.1 mph74%30.30 "Hg10 mi
7:58 AM58 °FSunny.2 mph80%30.30 "Hg10 mi
6:58 AM52 °FSunny.3 mph95%30.29 "Hg10 mi
5:58 AM51 °FSunny.1 mph95%30.28 "Hg10 mi
4:58 AM51 °FClear.1 mph95%30.28 "Hg10 mi
3:58 AM51 °FClear.No wind96%30.27 "Hg10 mi
2:58 AM52 °FClear.2 mph95%30.26 "Hg10 mi
1:58 AM52 °FClear.2 mph95%30.27 "Hg10 mi
12:58 AM53 °FClear.2 mph93%30.27 "Hg10 mi
11:58 PM
Oct 24
53 °FClear.1 mph93%30.26 "Hg10 mi
10:58 PM55 °FClear.No wind90%30.27 "Hg10 mi
9:58 PM55 °FClear.1 mph89%30.28 "Hg10 mi
8:58 PM56 °FClear.2 mph86%30.27 "Hg10 mi
Weather by CustomWeather, © 2014

See weather overviewHow to use our weather pages